Terminal Aerodrome Forecast
Issued by NWS Duluth, MN

Home | Current Version | Previous Version | Text Only | Print | Product List | Glossary On
Versions: 1 2 3 4 5 6 7 8 9 10 11 12 13 14 15 16 17 18 19 20 21 22 23 24 25 26 27 28 29 30 31 32
000
FTUS43 KDLH 192000 AAA
TAFINL
TAF AMD
KINL 192045Z 1921/2018 28009KT P6SM SCT035 OVC050
     FM200200 23005KT P6SM SCT050 BKN200
     FM201200 17010KT P6SM VCTS SCT040CB BKN080
     FM201600 19014KT P6SM SCT050=

USA.gov is the U.S. government's official web portal to all federal, state and local government web resources and services.